PEGASUS DEB, 24126

Orbit data source: Space-Track

PEGASUS DEB, 24126 is space debris in LEO originally from a launch on Thu, 19 May 1994 UTC launched from the Air Force Western Test Range (AFWTR). Debris objects in space refer to the collection of defunct objects orbiting the Earth. Examples of debris include non-operational satellites, rocket bodies, and fragments generated from explosions, collisions, or faulty payload assembly.

Loading next visibility...
Identifier
24126, 1994-029FZ
Orbit
LEO
Country
Flag of USUS
Related business
Manufacturer
Unknown
Mission
Spacecraft
Bus & Motor
Unknown
Mass
Unknown
Launch date (UTC)
1994-05-19 (32 years ago)
Launch vehicle
Unknown
Launch site
Air Force Western Test Range (AFWTR)
Object type
Payload
Rocket body
Debris
Shape & HBR
Unknown shape, 0.1 m
Radar Cross Section
Small (<0.1 m²)

Expand to show TLE details & history
Last TLE update: 7 hours ago

TLE from 7 hours ago
0 PEGASUS DEB
1 24126U 94029FZ  26062.62641788  .00005621  00000-0  11024-2 0  9991
2 24126  81.7962  84.5146 0275729 130.7570   9.4988 14.41107447538752
Epoch: 2026-03-03T15:02Z
TLE epoch observation values (Epoch: 2026-03-03T15:02:02.504Z)
Latitude
38.81371°
Longitude
-129.02151°
Altitude
566.421 km
Speed
7.684 km/s
True Right ascension
17h 11m 34s
True Declination
38° 38' 28"
Sunlit
Object was in daylight at epoch
Visualization orbit readout
Latitude
Unknown
Longitude
Unknown
Altitude
Unknown
Speed
Unknown
Apparent Right ascension
Unknown
Apparent Declination
Unknown
Sunlit
N/A
Visualization observer readout
Local Sidereal Time
02:00:02
Azimuth
Unknown
Elevation
Unknown
Doppler factor
Unknown
Orbital elements
Apogee altitude
948.542 km
Perigee altitude
555.348 km
Semi-major axis
7,130.082 km
Eccentricity
0.02757
Inclination
81.7962°
RAAN
84.5146°
Arg. of periapsis
130.757°
True anomaly
10.03854°
Mean anomaly
9.4988°
Eccentric anomaly
9.7668°
Mean motion
3.60497 °/min
Orbital period
99.86 mins
BSTAR
0.0011024
Loading maneuver chart data...
Computing Atmospheric mass density...
Loading historical data...
Loading historical data...
Loading historical data...
Loading historical data...
Loading historical data...
Loading historical data...
Loading historical data...

Documentation

Showing up to 5 results
|